Terug naar catalogus

STARLINK-35365

ActiefCommunicatieVLEO
NORAD 66186·PAYLOAD·🇺🇸 United States

Gelanceerd Oct 26, 2025 vanaf Cape Canaveral Space Force Station

Loading…

Volgende Passages (komende 24 uur)

TLE

VersSource: CelesTrak SupGP

Epoch: Sep 14, 2026, 15:03 UTC

1 66186C 25243K   26257.62756944 -.00019420  00000+0 -57358-3 0  2573
2 66186  53.1571  85.2586 0001220  99.0924 304.7113 15.34410426    13

Volg STARLINK-35365 in realtime met AllMySat

Download on the App Store